星链-2164 (STARLINK-2164 )

导读

STARLINK-2164是美国SpaceX星链星座中的成员,于2021年3月4日发射升空,属于星链一期组网卫星,运行在近地轨道。它是星链全球卫星互联网计划的组成部分,依托氪离子推进、自主碰撞规避等技术,为全球偏远地区、海洋等场景提供高速低延迟宽带互联网接入,助力构建覆盖全球的太空通信网络。

基本信息
目录编号:
47750
目录名称:
STARLINK-2164
国际标识:
2021-017AE
轨道中心:
EARTH
卫星名称:
星链-2164
卫星全名:
星链-2164 (STARLINK-2164 )
卫星状态:
在轨 (已飞行2010 天)
发射日期:
2021-03-04 UTC
国别 :
美国 (US)
星等 :
--
轨道信息
数据来源 国际轨道数据
星历时间: 2026-09-04T10:52:33+0800
13小时前
查看轨道信息
半长轴: 6846.933km
偏心率: 0.0000554
轨道倾角: 53.158°
近地点辐角 84.701°
升交点赤经 83.156°
平近点角 275.406°
近地点: 468.416km
远地点: 469.176km
周期: 93.973分钟
每日圈数: 15.323524
详细信息
固有亮度:
5
最大亮度:
2.5
卫星平台:
Starlink V1.0
覆盖范围:
全球
运营商:
太空探索技术公司
运营商所在国:
美国
制造商(研发单位):
太空探索技术公司
制造商所在国:
美国
使用方式:
暂无
卫星简介
星链(Starlink)计划是由太空探索技术公司(SpaceX)提出的一个巨型低轨卫星互联网星座项目,计划在2019年至2024年间在太空搭建由约1.2万颗卫星组成的“星链”网络,其中1584颗将部署在地球上空550千米处的近地轨道,并从2020年开始工作。该卫星仍在工作。
2D轨道图
3D轨道图
轨道高度分析图
轨道倾角分析图
轨道综合分析图
查看轨道综合分析图
交会数据列表
事件ID 空间交会对象 最接近时刻(TCA) 交会距离 交会风险概率(CRP) 交会风险指数(CRI) 操作
CDM_260905-230604-775006-789821
2026-09-05T
23:06:43+0000
1.529 km
极远距离
5.559569E-6 低风险 0.5
CDM_260905-160304-775006-789821
2026-09-05T
16:03:51+0000
1.696 km
极远距离
3.999182E-6 低风险 0.47
CDM_260905-005204-775006-948921
2026-09-05T
00:52:37+0000
1.810 km
极远距离
3.739568E-6 低风险 0.46
CDM_260905-173704-775006-789821
2026-09-05T
17:37:49+0000
1.888 km
极远距离
2.945574E-6 低风险 0.44
CDM_260904-210004-775006-955022
2026-09-04T
21:00:29+0000
1.977 km
极远距离
2.925147E-6 低风险 0.44
CDM_260906-190804-775005-185721
2026-09-06T
19:08:09+0000
2.404 km
极远距离
1.662642E-6 低风险 0.39
CDM_260904-201304-775006-955022
2026-09-04T
20:13:30+0000
2.590 km
极远距离
1.640862E-6 低风险 0.39
CDM_260904-215704-775006-757821
2026-09-04T
21:57:09+0000
2.678 km
极远距离
1.496846E-6 低风险 0.39
CDM_260905-163304-775006-815821
2026-09-05T
16:33:04+0000
2.791 km
极远距离
1.464388E-6 低风险 0.38
CDM_260906-234904-775006-798421
2026-09-06T
23:49:19+0000
2.909 km
极远距离
1.387213E-6 低风险 0.38